{"data":{"norad_id":55665,"epoch":"2026-05-24T22:00:18.986688Z","epoch_age_seconds":79367,"freshness":"FRESH","line1":"1 55665U 23021AP  26144.91688642  .00000483  00000+0  48286-4 0  9992","line2":"2 55665  69.9993 332.2196 0002875 269.2713  90.8116 14.98331996180694","mean_motion":14.98331996,"eccentricity":0.0002875,"inclination_deg":69.9993,"raan_deg":332.2196,"arg_perigee_deg":269.2713,"mean_anomaly_deg":90.8116,"bstar":4.8286e-5,"rev_number":18069,"period_min":96.106871096945,"perigee_km":570.05153980436,"apogee_km":574.04789716748,"semimajor_km":6950.1867184859,"source":"CELESTRAK","updated_at":"2026-05-25T13:38:17.874888Z"}}